Location: Partizánske
(48.6285°N, 18.3769°E)
Time: 00:29:24
(UTC+01:00)

ISS - Visible Passes

Search period start: 17 January 2021 00:00
Search period end: 27 January 2021 00:00
Orbit: 418 x 419 km, 51.6° (Epoch: 17 January)

Date Brightness Start Highest point End Pass type
(mag) Time Alt. Az. Time Alt. Az. Time Alt. Az.
18 Jan -1.3 18:42:08 10° SSW 18:43:00 15° S 18:43:00 15° S visible
19 Jan -1.8 17:55:11 10° S 17:57:20 16° SE 17:57:31 16° SE visible
19 Jan -0.4 19:30:19 10° WSW 19:30:29 11° WSW 19:30:29 11° WSW visible
20 Jan -1.3 17:09:17 10° SE 17:09:48 10° SE 17:10:19 10° SE visible
20 Jan -2.5 18:42:41 10° SW 18:44:55 35° SSW 18:44:55 35° SSW visible
21 Jan -2.8 17:55:10 10° SSW 17:58:16 35° SE 17:59:17 28° ESE visible
21 Jan -0.6 19:31:36 10° W 19:32:14 15° W 19:32:14 15° W visible
22 Jan -2.2 17:07:52 10° SSW 17:10:37 24° SE 17:13:23 10° E visible
22 Jan -3.2 18:43:45 10° WSW 18:46:31 57° W 18:46:31 57° W visible
23 Jan -3.8 17:55:59 10° WSW 17:59:20 74° SSE 18:00:45 32° ENE visible
23 Jan -0.6 19:32:58 10° W 19:33:42 15° WNW 19:33:42 15° WNW visible
24 Jan -3.3 17:08:18 10° SW 17:11:35 51° SSE 17:14:52 10° ENE visible
24 Jan -3.0 18:45:04 10° W 18:47:54 49° NW 18:47:54 49° NW visible
25 Jan -3.6 17:57:10 10° W 18:00:32 66° NNW 18:02:03 29° ENE visible
25 Jan -0.6 19:34:18 10° WNW 19:35:00 15° WNW 19:35:00 15° WNW visible
26 Jan -3.7 17:09:18 10° WSW 17:12:40 84° NNW 17:16:03 10° ENE visible
26 Jan -2.8 18:46:24 10° WNW 18:49:08 42° NNW 18:49:08 42° NNW visible
